[[{"header":{"parameterUnit":"m.s-1","parameterCategory":1,"la1":30.2991,"la2":30.254,"lo1":-89.0895,"lo2":-89.0444,"dy":0.0017,"dx":0.0017,"nx":28,"ny":28,"refTime":"2024-09-26T09:00:00:Z","depth":0,"parameterNumber":2,"parameterNumberName":"U-component_of_WINDS"},"data":[0,0,0,0,0,0,0,0,0,0,0,0,0,0,0,0,0,0,0,0,0,0,0,0,0,0,0,0,0,0,0,0,0,0,0,0,0,0,0,0,0,0,0,0,0,0,0,0,0,0,0,0,0,0,0,0,0,0,-3.1223,-3.1223,0,-3.1168,-3.1167,-3.1167,-3.0995,-3.0991,-3.0988,-3.0984,-3.0932,-3.0934,-3.0936,0,0,0,0,0,0,0,0,0,0,0,0,0,-3.1185,-3.1187,-3.1224,-3.1223,-3.1222,-3.1168,-3.1167,-3.1167,-3.0996,-3.0991,-3.0987,-3.0982,-3.0931,-3.0933,-3.0936,0,0,0,0,0,0,0,0,0,0,0,0,0,-3.1173,-3.1187,-3.1224,-3.113,-3.1121,-3.1168,-3.1167,-3.1166,-3.0997,-3.0991,-3.0985,-3.098,-3.093,-3.0933,-3.0936,-3.1071,0,0,-3.0946,-3.0948,0,0,0,0,0,0,0,0,-3.1174,-3.1175,-3.1145,-3.1137,-3.1127,-3.1082,-3.1134,-3.1135,-3.0998,-3.1044,-3.0984,-3.0977,-3.0987,-3.0985,-3.0987,-3.1068,-3.1066,-3.0947,-3.0949,-3.095,-3.0951,0,0,0,0,0,0,0,-3.1175,-3.1176,-3.1202,-3.1144,-3.1134,-3.1092,-3.1084,-3.1134,-3.1048,-3.104,-3.1027,-3.1023,-3.0981,-3.0985,-3.0985,-3.1065,-3.0946,-3.0949,-3.0951,-3.0953,-3.1255,-3.1261,0,0,0,0,0,0,-3.1189,-3.1178,-3.1203,-3.12,-3.1137,-3.1098,-3.1089,-3.1103,-3.1047,-3.1033,-3.1028,-3.1015,-3.0982,-3.0981,-3.0982,-3.1137,-3.095,-3.0953,-3.0955,-3.1249,-3.1257,-3.1263,0,0,0,0,0,0,-3.1189,-3.1193,-3.1206,-3.1186,-3.1184,-3.1104,-3.1121,-3.1105,-3.1108,-3.1038,-3.1022,-3.1047,-3.0977,-3.0978,-3.105,-3.1133,-3.0954,-3.0957,-3.1242,-3.1251,-3.126,-3.1449,0,0,0,0,0,0,-3.1188,-3.1194,-3.1243,-3.1188,-3.1186,-3.1274,-3.1126,-3.1108,-3.1114,-3.1096,-3.1052,-3.1039,-3.0973,-3.1046,-3.1053,-3.1134,-3.096,-3.1234,-3.1246,-3.1257,-3.1435,-3.1463,-3.1487,0,0,0,0,0,-3.1188,-3.1299,-3.1246,-3.125,-3.1246,-3.1279,-3.1278,-3.1198,-3.1121,-3.1171,-3.1126,-3.1041,-3.1122,-3.1055,-3.1062,-3.1145,-3.1229,-3.1243,-3.1256,-3.1423,-3.1458,-3.1487,0,0,0,0,0,0,-3.1367,-3.129,-3.1231,-3.1327,-3.1311,-3.125,-3.131,-3.1237,-3.1243,-3.1227,-3.1128,-3.112,-3.1207,-3.1182,-3.1109,-3.1273,-3.1162,-3.1177,-3.1286,-3.1318,-3.1344,-3.135,-3.0962,0,0,0,0,0,-3.1418,-3.145,-3.1381,-3.1473,-3.1467,-3.1391,-3.1402,-3.1342,-3.1321,-3.1314,-3.1274,-3.1259,-3.1281,-3.1298,-3.1314,-3.1429,-3.1419,-3.149,-3.1516,-3.1538,-3.1554,-3.1616,-3.1647,-3.1308,-3.1308,-3.1308,0,0,-3.1524,-3.1485,-3.1512,-3.1508,-3.1488,-3.1526,-3.1386,-3.1431,-3.1458,-3.1321,-3.1387,-3.1358,-3.1334,-3.1429,-3.1469,-3.1412,-3.1645,-3.1556,-3.1574,-3.1578,-3.1633,-3.1665,-3.1694,-3.1318,-3.1316,-3.1314,0,0,-3.1735,-3.1708,-3.1783,-3.1766,-3.1737,-3.1685,-3.1703,-3.1653,-3.1628,-3.1692,-3.159,-3.1622,-3.1661,-3.1649,-3.1648,-3.1856,-3.1779,-3.1864,-3.2003,-3.2064,-3.2091,-3.2114,-3.2191,-3.2219,-3.1879,-3.188,-3.188,0,-3.1871,-3.1921,-3.1831,-3.1883,-3.1885,-3.1761,-3.1837,-3.1825,-3.1804,-3.1809,-3.1744,-3.1792,-3.1767,-3.1859,-3.191,-3.1912,-3.1932,-3.187,-3.2094,-3.2116,-3.2137,-3.2209,-3.2238,-3.189,-3.1889,-3.1888,-3.1887,0,-3.209,-3.2127,-3.2191,-3.2173,-3.2182,-3.2246,-3.2167,-3.2187,-3.2126,-3.2082,-3.215,-3.2115,-3.2124,-3.214,-3.2081,-3.2224,-3.219,-3.2111,-3.1998,-3.2181,-3.2248,-3.2274,-3.1906,-3.1902,-3.1899,-3.1896,0,0,-3.2416,-3.2346,-3.2372,-3.2362,-3.2321,-3.2349,-3.2407,-3.2414,-3.2435,-3.2424,-3.2473,-3.2509,-3.2436,-3.2435,-3.2373,-3.2427,-3.2597,-3.2341,-3.2339,-3.2393,-3.2755,-3.2817,-3.2851,-3.2544,-3.2549,-3.2553,-3.2758,0,-3.2619,-3.2714,-3.2635,-3.2746,-3.278,-3.2662,-3.2713,-3.2695,-3.2655,-3.2679,-3.2635,-3.2663,-3.2563,-3.2562,-3.2609,-3.2566,-3.2669,-3.255,-3.2591,-3.2594,-3.2604,-3.2884,-3.295,-3.3146,-3.2783,-3.2788,-3.2791,0,-3.2868,-3.2869,-3.2983,-3.2935,-3.2947,-3.2994,-3.2995,-3.3018,-3.2995,-3.2963,-3.2962,-3.2886,-3.2942,-3.2829,-3.2906,-3.2827,-3.2839,-3.2821,-3.2826,-3.2829,-3.2706,-3.2899,-3.3206,-3.3237,-3.283,-3.2827,-3.2824,0,-3.3098,-3.3127,-3.3199,-3.3194,-3.314,-3.3177,-3.3156,-3.3127,-3.3136,-3.3137,-3.3142,-3.315,-3.3155,-3.3164,-3.3093,-3.3016,-3.318,-3.3061,-3.3157,-3.316,-3.3199,-3.3199,-3.3516,-3.3203,-3.3202,-3.3202,-3.3201,0,-3.3335,-3.341,-3.3302,-3.3347,-3.3428,-3.3336,-3.342,-3.3387,-3.3362,-3.34,-3.3298,-3.3336,-3.3238,-3.3267,-3.3211,-3.3286,-3.3288,-3.3265,-3.325,-3.3276,-3.328,-3.3285,-3.3271,-3.3209,-3.3208,-3.3206,-3.3205,0,-3.3607,-3.3536,-3.3608,-3.355,-3.3537,-3.36,-3.3551,-3.3592,-3.3544,-3.3594,-3.36,-3.3527,-3.3555,-3.3484,-3.3502,-3.3465,-3.3572,-3.3533,-3.358,-3.357,-3.3671,-3.3664,-3.4006,-3.4048,-3.3705,-3.3708,-3.3711,0,-3.3764,-3.3819,-3.3767,-3.3784,-3.3769,-3.3798,-3.3807,-3.3718,-3.3732,-3.371,-3.3754,-3.3774,-3.3785,-3.3836,-3.3786,-3.3799,-3.3762,-3.3881,-3.3764,-3.3789,-3.3768,-3.3767,-3.3773,-3.3907,-3.3911,-3.3914,-3.3917,0,-3.4051,-3.4014,-3.4029,-3.4034,-3.4048,-3.4047,-3.404,-3.406,-3.3966,-3.3987,-3.4014,-3.4023,-3.4041,-3.4063,-3.4065,-3.4045,-3.3968,-3.3954,-3.3977,-3.4006,-3.4032,-3.4022,-3.365,-3.3947,-3.3944,-3.3942,-3.394,-3.3939,-3.4272,-3.4316,-3.4287,-3.4308,-3.4293,-3.4289,-3.4324,-3.4281,-3.4301,-3.4309,-3.4255,-3.4294,-3.4271,-3.4266,-3.4254,-3.4285,-3.4231,-3.4265,-3.4273,-3.4284,-3.4302,-3.4025,-3.4285,-3.4284,-3.4283,-3.4282,-3.4281,0,-3.4556,-3.4531,-3.4552,-3.4545,-3.4563,-3.4484,-3.4473,-3.4493,-3.4529,-3.4513,-3.4525,-3.4558,-3.4578,-3.4529,-3.4543,-3.4577,-3.4542,-3.4584,-3.4583,-3.458,-3.4348,-3.4328,-3.4613,-3.4613,-3.4613,-3.4613,-3.4612,-3.4612,-3.4707,-3.4778,-3.4738,-3.4801,-3.4775,-3.4812,-3.4812,-3.4809,-3.4795,-3.4836,-3.4852,-3.4819,-3.479,-3.4801,-3.4817,-3.4802,-3.4814,-3.4869,-3.4843,-3.4628,-3.4596,-3.4565,-3.4546,-3.4872,-3.4872,-3.5072,-3.5074,-3.5075]},{"header":{"parameterUnit":"m.s-1","parameterCategory":1,"la1":30.2991,"la2":30.254,"lo1":-89.0895,"lo2":-89.0444,"dy":0.0017,"dx":0.0017,"nx":28,"ny":28,"refTime":"2024-09-26T09:00:00:Z","depth":0,"parameterNumber":3,"parameterNumberName":"V-component_of_WINDS"},"data":[0,0,0,0,0,0,0,0,0,0,0,0,0,0,0,0,0,0,0,0,0,0,0,0,0,0,0,0,0,0,0,0,0,0,0,0,0,0,0,0,0,0,0,0,0,0,0,0,0,0,0,0,0,0,0,0,0,0,-6.2337,-6.2337,0,-6.2283,-6.2282,-6.2281,-6.2145,-6.2143,-6.214,-6.2137,-6.2084,-6.2085,-6.2086,0,0,0,0,0,0,0,0,0,0,0,0,0,-6.2326,-6.2327,-6.2337,-6.2337,-6.2336,-6.2283,-6.2282,-6.2281,-6.2146,-6.2142,-6.2139,-6.2136,-6.2083,-6.2085,-6.2086,0,0,0,0,0,0,0,0,0,0,0,0,0,-6.2307,-6.2327,-6.2337,-6.2262,-6.2255,-6.2283,-6.2282,-6.2281,-6.2147,-6.2142,-6.2138,-6.2134,-6.2083,-6.2085,-6.2087,-6.2185,0,0,-6.2092,-6.2093,0,0,0,0,0,0,0,0,-6.2309,-6.2308,-6.2274,-6.2267,-6.2259,-6.2216,-6.2258,-6.2249,-6.2148,-6.2188,-6.2137,-6.2132,-6.2132,-6.2129,-6.2128,-6.2182,-6.218,-6.2092,-6.2094,-6.2094,-6.2095,0,0,0,0,0,0,0,-6.231,-6.2309,-6.2316,-6.2273,-6.2264,-6.2231,-6.2224,-6.2256,-6.2185,-6.2184,-6.2174,-6.2169,-6.2127,-6.2127,-6.2126,-6.2179,-6.2092,-6.2094,-6.2095,-6.2096,-6.2309,-6.2313,0,0,0,0,0,0,-6.2322,-6.2311,-6.2317,-6.2314,-6.2274,-6.2235,-6.2227,-6.2234,-6.2184,-6.2172,-6.2173,-6.2163,-6.2126,-6.2124,-6.2124,-6.2234,-6.2094,-6.2096,-6.2097,-6.2304,-6.231,-6.2315,0,0,0,0,0,0,-6.2322,-6.2324,-6.232,-6.231,-6.2307,-6.224,-6.225,-6.2236,-6.2236,-6.2175,-6.2162,-6.2186,-6.2122,-6.2121,-6.217,-6.223,-6.2097,-6.2099,-6.2299,-6.2306,-6.2312,-6.2456,0,0,0,0,0,0,-6.2322,-6.2325,-6.2361,-6.2312,-6.2308,-6.2367,-6.2253,-6.2238,-6.2239,-6.2226,-6.2184,-6.2173,-6.2119,-6.2168,-6.2172,-6.223,-6.21,-6.2293,-6.2302,-6.231,-6.2446,-6.2467,-6.2485,0,0,0,0,0,-6.2322,-6.2404,-6.2363,-6.2365,-6.2352,-6.237,-6.2368,-6.2303,-6.2244,-6.228,-6.2241,-6.2175,-6.2223,-6.2174,-6.2177,-6.2237,-6.2289,-6.2299,-6.2309,-6.2437,-6.2463,-6.2485,0,0,0,0,0,0,-6.2464,-6.2397,-6.235,-6.2419,-6.2401,-6.2347,-6.2391,-6.2333,-6.2332,-6.232,-6.224,-6.2231,-6.2291,-6.2269,-6.2215,-6.2329,-6.2245,-6.2257,-6.2341,-6.2365,-6.2384,-6.2388,-6.2102,0,0,0,0,0,-6.2503,-6.2523,-6.2463,-6.2529,-6.2523,-6.2459,-6.2464,-6.2416,-6.2394,-6.2387,-6.2351,-6.2334,-6.2345,-6.2354,-6.2361,-6.2442,-6.243,-6.2485,-6.2505,-6.2521,-6.2532,-6.2572,-6.2595,-6.2348,-6.2348,-6.2348,0,0,-6.2584,-6.2549,-6.2567,-6.2557,-6.2537,-6.256,-6.2453,-6.2482,-6.2498,-6.2391,-6.2434,-6.2408,-6.2383,-6.2449,-6.2475,-6.2432,-6.2597,-6.2534,-6.2548,-6.2549,-6.2585,-6.2608,-6.2629,-6.2355,-6.2354,-6.2352,0,0,-6.2742,-6.2719,-6.277,-6.2753,-6.2724,-6.2681,-6.2694,-6.2648,-6.2626,-6.2668,-6.2588,-6.2606,-6.2627,-6.2612,-6.2608,-6.276,-6.2699,-6.2765,-6.2868,-6.2908,-6.2927,-6.2944,-6.2998,-6.3018,-6.2776,-6.2776,-6.2776,0,-6.2847,-6.2877,-6.2805,-6.2838,-6.2836,-6.2739,-6.279,-6.2777,-6.2753,-6.2754,-6.2706,-6.2729,-6.2706,-6.2765,-6.2802,-6.2802,-6.2814,-6.2769,-6.293,-6.2946,-6.2961,-6.3011,-6.3032,-6.2784,-6.2783,-6.2783,-6.2782,0,-6.3006,-6.3028,-6.3074,-6.3051,-6.3054,-6.3097,-6.3032,-6.3043,-6.2994,-6.2956,-6.3,-6.2968,-6.2967,-6.2977,-6.2931,-6.303,-6.3004,-6.2945,-6.2859,-6.2994,-6.304,-6.3058,-6.2796,-6.2793,-6.2791,-6.2789,0,0,-6.3252,-6.3188,-6.3206,-6.3194,-6.3155,-6.3171,-6.321,-6.3207,-6.3218,-6.3205,-6.3234,-6.3254,-6.3198,-6.3193,-6.3144,-6.3179,-6.33,-6.3114,-6.3112,-6.3149,-6.3407,-6.3452,-6.3475,-6.3259,-6.3263,-6.3265,-6.3409,0,-6.34,-6.3461,-6.3397,-6.3471,-6.349,-6.3398,-6.3431,-6.3411,-6.3377,-6.3388,-6.335,-6.3365,-6.3291,-6.3287,-6.3318,-6.3279,-6.3351,-6.3268,-6.3286,-6.3288,-6.3294,-6.3499,-6.3546,-6.3683,-6.3426,-6.3429,-6.3431,0,-6.3581,-6.3575,-6.3651,-6.3605,-6.3611,-6.3642,-6.3634,-6.3646,-6.3622,-6.3594,-6.3588,-6.3528,-6.3562,-6.3479,-6.3526,-6.3471,-6.3474,-6.3457,-6.346,-6.3459,-6.3367,-6.3502,-6.3725,-6.3746,-6.3459,-6.3457,-6.3455,0,-6.3752,-6.3762,-6.3808,-6.3801,-6.375,-6.3774,-6.3754,-6.3725,-6.3727,-6.372,-6.372,-6.3719,-6.3717,-6.3717,-6.3658,-6.3603,-6.3712,-6.3624,-6.3689,-6.3691,-6.3716,-6.3715,-6.3942,-6.372,-6.372,-6.372,-6.3719,0,-6.3923,-6.3973,-6.3884,-6.3912,-6.3965,-6.3891,-6.3946,-6.3916,-6.3891,-6.3913,-6.3834,-6.3855,-6.3776,-6.379,-6.3744,-6.3788,-6.3789,-6.3768,-6.3755,-6.3774,-6.3777,-6.3775,-6.3763,-6.3725,-6.3724,-6.3723,-6.3722,0,-6.4123,-6.4065,-6.4109,-6.4056,-6.4044,-6.4086,-6.4041,-6.4065,-6.4025,-6.4053,-6.4055,-6.3993,-6.4005,-6.3946,-6.3948,-6.3917,-6.3984,-6.3956,-6.3992,-6.3983,-6.4051,-6.4045,-6.4284,-6.4311,-6.4074,-6.4076,-6.4078,0,-6.4235,-6.4271,-6.4222,-6.423,-6.4214,-6.4228,-6.4229,-6.4158,-6.4163,-6.4137,-6.4164,-6.4169,-6.4169,-6.4192,-6.4147,-6.4148,-6.4118,-6.4202,-6.4118,-6.4136,-6.4118,-6.4116,-6.4119,-6.4219,-6.4222,-6.4225,-6.4227,0,-6.4442,-6.4411,-6.4415,-6.441,-6.4413,-6.4405,-6.4392,-6.4404,-6.4327,-6.4336,-6.4346,-6.4346,-6.4347,-6.4353,-6.4344,-6.4324,-6.4263,-6.4253,-6.4268,-6.4288,-6.4308,-6.4297,-6.4039,-6.4248,-6.4246,-6.4244,-6.4243,-6.4242,-6.46,-6.4627,-6.4596,-6.4603,-6.4586,-6.4576,-6.4595,-6.4557,-6.4564,-6.4558,-6.4516,-6.4535,-6.4508,-6.449,-6.4476,-6.4489,-6.4449,-6.4471,-6.4477,-6.4483,-6.4495,-6.4306,-6.4487,-6.4487,-6.4486,-6.4485,-6.4485,0,-6.4801,-6.4776,-6.4784,-6.4767,-6.4773,-6.4714,-6.4697,-6.4706,-6.4722,-6.4702,-6.4703,-6.4715,-6.472,-6.4676,-6.4675,-6.4694,-6.4666,-6.4696,-6.4693,-6.4689,-6.4531,-6.4517,-6.4718,-6.4718,-6.4718,-6.4718,-6.4718,-6.4718,-6.4906,-6.4948,-6.4914,-6.4947,-6.4921,-6.4938,-6.4933,-6.4923,-6.4906,-6.4922,-6.4925,-6.4896,-6.4866,-6.4862,-6.4864,-6.4851,-6.4854,-6.4894,-6.4871,-6.4724,-6.4701,-6.4679,-6.4666,-6.4895,-6.4895,-6.5028,-6.5029,-6.503]}]]